OK1UDZ-5 Weather Reports


Display with metric or nautical units.
time (UTC)temp
F
wind
direction
speed
MPH
gust
MPH
rain 1hr
in
rain 24hr
in
rain mn
in
humidity
%
barometer
mb
20260507011429 0 90 0.0 0.0 0.00 0.00 0.00 1007.4
20260507010629 0 248 0.0 0.0 0.00 0.00 0.00 1007.3
20260507005824 0 45 0.0 0.0 0.00 0.00 0.00 1007.2
20260507005024 0 248 0.0 0.0 0.00 0.00 0.00 1007.2
20260507004223 0 248 0.0 0.0 0.00 0.00 0.00 1007.2
20260507003423 0 45 0.0 0.0 0.00 0.00 0.00 1007.2
20260507002623 0 45 0.0 0.0 0.00 0.00 0.00 1007.0
20260507001823 0 45 0.0 0.0 0.00 0.00 0.00 1006.8
20260507001022 0 45 0.0 0.0 0.00 0.00 0.00 1006.6
20260507000221 0 45 0.0 0.0 0.00 0.00 0.00 1006.5
20260506235420 0 45 0.0 0.0 0.00 0.01 0.00 1006.4
20260506234620 0 45 0.0 0.0 0.00 0.01 0.00 1006.2
20260506233817 0 45 0.0 0.0 0.00 0.01 0.00 1006.0
20260506233017 0 45 0.0 0.0 0.00 0.01 0.00 1005.9
20260506232216 0 45 0.0 0.0 0.00 0.01 0.00 1005.8
20260506231417 0 45 0.0 0.0 0.00 0.01 0.00 1005.8
20260506230616 0 45 0.0 0.0 0.00 0.01 0.00 1005.9
20260506225815 0 45 0.0 0.0 0.00 0.01 0.00 1006.0
20260506225014 0 45 0.0 0.0 0.00 0.01 0.00 1005.7
20260506224215 0 45 0.0 0.0 0.00 0.01 0.00 1005.8
20260506223414 0 45 0.0 0.0 0.00 0.01 0.00 1005.7
20260506222613 0 45 0.0 0.0 0.00 0.01 0.00 1005.9
20260506221814 0 45 0.0 1.0 0.00 0.01 0.00 1005.7
20260506221013 0 45 0.0 0.0 0.00 0.01 0.00 1005.7
20260506220207 0 180 0.0 0.0 0.00 0.01 0.00 1005.2
20260506215407 0 180 0.0 1.0 0.00 0.01 0.01 1004.9
20260506214606 0 180 0.0 0.0 0.00 0.01 0.01 1004.3
20260506213806 0 248 0.0 0.0 0.00 0.01 0.01 1004.2
20260506213006 0 180 0.0 0.0 0.00 0.01 0.01 1004.1
20260506212202 0 135 0.0 0.0 0.00 0.01 0.01 1004.0
20260506211402 0 135 0.0 0.0 0.00 0.01 0.01 1004.0
20260506210600 0 180 0.0 0.0 0.00 0.01 0.01 1004.0
20260506205759 0 180 0.0 0.0 0.00 0.01 0.01 1004.1
20260506204956 0 180 0.0 0.0 0.00 0.01 0.01 1004.2
20260506204153 0 180 0.0 0.0 0.00 0.01 0.01 1004.2
20260506203346 0 135 0.0 0.0 0.00 0.01 0.01 1004.3
20260506202542 0 135 0.0 0.0 0.00 0.01 0.01 1004.2
20260506201741 0 180 0.0 0.0 0.00 0.01 0.01 1004.3
20260506200935 0 180 0.0 0.0 0.00 0.01 0.01 1004.4
20260506200125 0 90 0.0 0.0 0.00 0.01 0.01 1004.5
20260506195315 0 45 0.0 0.0 0.00 0.01 0.01 1004.5
20260506194508 0 45 0.0 0.0 0.00 0.01 0.01 1004.4
20260506193706 0 45 0.0 0.0 0.00 0.01 0.01 1004.3
20260506192905 0 45 0.0 0.0 0.00 0.01 0.01 1004.4
20260506192105 0 45 0.0 0.0 0.00 0.01 0.01 1004.2
20260506191303 0 45 0.0 0.0 0.00 0.01 0.01 1004.3
20260506190500 0 45 0.0 0.0 0.00 0.01 0.01 1004.2
20260506185700 0 45 0.0 0.0 0.00 0.01 0.01 1004.1
20260506184900 0 45 0.0 0.0 0.00 0.01 0.01 1004.2
20260506184100 0 45 0.0 0.0 0.00 0.01 0.01 1004.1
20260506183256 0 45 0.0 0.0 0.00 0.01 0.01 1003.7
20260506182456 0 135 0.0 0.0 0.00 0.01 0.01 1003.5
20260506181654 0 45 0.0 0.0 0.00 0.01 0.01 1003.1
20260506180850 0 45 0.0 0.0 0.00 0.01 0.01 1002.5
20260506180048 0 180 0.0 0.0 0.00 0.01 0.01 1002.3
20260506175244 0 113 0.0 0.0 0.00 0.01 0.01 1002.1
20260506174445 0 180 0.0 0.0 0.00 0.01 0.01 1002.0
20260506173644 0 158 0.0 0.0 0.00 0.01 0.01 1001.8
20260506172842 0 135 0.0 0.0 0.00 0.01 0.01 1001.9
20260506172039 0 135 0.0 0.0 0.00 0.01 0.01 1001.9
20260506171236 0 180 0.0 0.0 0.00 0.01 0.01 1001.8
20260506170435 0 180 0.0 0.0 0.00 0.01 0.01 1001.7
20260506165635 0 180 0.0 0.0 0.00 0.01 0.01 1001.5
20260506164834 0 135 0.0 0.0 0.00 0.01 0.01 1001.6
20260506164034 0 45 0.0 0.0 0.00 0.01 0.01 1001.8
20260506163230 0 135 0.0 0.0 0.00 0.01 0.01 1001.8
20260506162430 0 135 0.0 0.0 0.00 0.01 0.01 1002.0
20260506161627 0 180 0.0 0.0 0.00 0.01 0.01 1002.2
20260506160821 0 180 0.0 0.0 0.00 0.01 0.01 1002.1
20260506160012 0 180 0.0 0.0 0.00 0.01 0.01 1002.1
20260506155202 0 203 0.0 0.0 0.00 0.01 0.01 1002.2
20260506154401 0 203 0.0 0.0 0.00 0.01 0.01 1002.5
20260506153601 0 180 0.0 0.0 0.00 0.01 0.01 1002.4
20260506152759 0 158 0.0 0.0 0.00 0.01 0.01 1002.5
20260506151958 0 180 0.0 0.0 0.00 0.01 0.01 1002.5
20260506151158 0 135 0.0 0.0 0.00 0.01 0.01 1002.3
20260506150356 0 180 0.0 0.0 0.00 0.01 0.01 1001.8
20260506145555 0 180 0.0 0.0 0.00 0.01 0.01 1001.9
20260506144750 0 180 0.0 0.0 0.00 0.01 0.01 1002.4
20260506143943 0 135 0.0 0.0 0.00 0.01 0.01 1003.0
20260506143140 0 180 0.0 0.0 0.00 0.01 0.01 1003.0
20260506142337 0 135 0.0 0.0 0.00 0.01 0.01 1003.1
20260506141537 0 180 0.0 0.0 0.00 0.01 0.01 1003.2
20260506140737 0 135 0.0 0.0 0.00 0.01 0.01 1003.2
20260506135937 0 203 0.0 0.0 0.00 0.01 0.01 1003.3
20260506135136 0 180 0.0 0.0 0.00 0.01 0.01 1003.3
20260506134336 0 180 0.0 0.0 0.00 0.01 0.01 1003.3
20260506133537 0 90 0.0 0.0 0.00 0.01 0.01 1003.2
20260506132734 0 135 0.0 0.0 0.00 0.01 0.01 1003.6
20260506131933 0 180 0.0 0.0 0.00 0.01 0.01 1003.8
20260506131134 0 135 0.0 0.0 0.00 0.01 0.01 1004.0
20260506130334 0 180 0.0 0.0 0.00 0.01 0.01 1004.2
20260506125535 0 203 0.0 0.0 0.00 0.01 0.01 1004.2
20260506124733 0 135 0.0 0.0 0.00 0.01 0.01 1004.0
20260506123931 0 180 0.0 0.0 0.00 0.01 0.01 1003.9
20260506123132 0 135 0.0 0.0 0.00 0.01 0.01 1004.3
20260506122331 0 135 0.0 0.0 0.00 0.01 0.01 1004.3
20260506121531 0 180 0.0 0.0 0.00 0.01 0.01 1004.2
20260506120731 0 180 0.0 0.0 0.00 0.01 0.01 1004.2
20260506115930 0 135 0.0 0.0 0.00 0.01 0.01 1004.1
20260506115130 0 180 0.0 0.0 0.00 0.01 0.01 1004.2
20260506114327 0 135 0.0 0.0 0.00 0.01 0.01 1004.0
20260506113526 0 135 0.0 0.0 0.00 0.01 0.01 1004.3
20260506112724 0 135 0.0 0.0 0.00 0.01 0.01 1004.5
20260506111923 0 248 0.0 0.0 0.00 0.01 0.01 1004.7
20260506111124 0 180 0.0 0.0 0.00 0.01 0.01 1004.5
20260506110325 0 180 0.0 0.0 0.00 0.01 0.01 1004.6
20260506105525 0 248 0.0 0.0 0.00 0.01 0.01 1004.9
20260506104724 0 180 0.0 0.0 0.00 0.01 0.01 1005.0
20260506103920 0 180 0.0 0.0 0.00 0.01 0.01 1004.8
20260506103120 0 248 0.0 0.0 0.00 0.01 0.01 1004.7
20260506102320 0 180 0.0 0.0 0.00 0.01 0.01 1005.0
20260506101521 0 248 0.0 0.0 0.00 0.01 0.01 1005.0
20260506100720 0 135 0.0 0.0 0.00 0.01 0.01 1005.1
20260506095921 0 180 0.0 0.0 0.00 0.01 0.01 1005.2
20260506095123 0 203 0.0 0.0 0.00 0.01 0.01 1005.2
20260506094320 0 180 0.0 0.0 0.00 0.01 0.01 1005.6
20260506093521 0 203 0.0 0.0 0.00 0.01 0.01 1005.5
20260506092719 0 180 0.0 0.0 0.00 0.01 0.01 1005.7
20260506091918 0 203 0.0 0.0 0.00 0.01 0.01 1005.4
20260506091121 0 180 0.0 5.0 0.00 0.01 0.01 1005.6
20260506090320 0 180 0.0 0.0 0.00 0.01 0.01 1005.5
20260506085519 0 180 0.0 0.0 0.00 0.01 0.01 1005.8
20260506084718 0 180 0.0 0.0 0.00 0.01 0.01 1005.7
20260506083916 0 180 0.0 0.0 0.00 0.01 0.01 1005.8
20260506083114 0 180 0.0 0.0 0.00 0.01 0.01 1006.0
20260506082315 0 248 0.0 0.0 0.00 0.01 0.01 1005.8
20260506081514 0 135 0.0 0.0 0.00 0.01 0.01 1005.8
20260506080714 0 180 0.0 0.0 0.00 0.01 0.01 1005.7
20260506073508 0 180 0.0 0.0 0.00 0.01 0.01 1006.2
20260506072705 0 248 0.0 0.0 0.00 0.01 0.01 1006.2
20260506071906 0 248 0.0 0.0 0.00 0.01 0.01 1006.2
20260506071106 0 248 0.0 0.0 0.00 0.01 0.01 1006.2
20260506070306 0 248 0.0 0.0 0.00 0.01 0.01 1006.4
20260506062305 0 203 0.0 0.0 0.00 0.01 0.01 1006.3
20260506061502 0 203 0.0 0.0 0.00 0.01 0.01 1006.2
20260506060704 0 248 0.0 0.0 0.00 0.01 0.01 1006.5
20260506051103 0 248 0.0 0.0 0.00 0.01 0.01 1006.4
20260506050304 0 180 0.0 0.0 0.00 0.01 0.01 1006.4
20260506044703 0 180 0.0 0.0 0.00 0.01 0.01 1006.7
20260506043901 0 180 0.0 0.0 0.00 0.01 0.01 1007.0
20260506043059 0 135 0.0 0.0 0.00 0.01 0.01 1007.1
20260506042300 0 135 0.0 0.0 0.00 0.01 0.01 1007.1
20260506041458 0 135 0.0 0.0 0.00 0.01 0.01 1007.1
20260506040658 0 135 0.0 0.0 0.00 0.01 0.01 1007.1
20260506035859 0 135 0.0 0.0 0.00 0.01 0.01 1006.9
20260506035059 0 180 0.0 0.0 0.00 0.01 0.01 1006.8
20260506034257 0 180 0.0 0.0 0.00 0.01 0.01 1006.7
20260506033457 0 180 0.0 0.0 0.00 0.01 0.01 1006.6
20260506032658 0 180 0.0 0.0 0.00 0.01 0.01 1006.5
20260506031859 0 180 0.0 0.0 0.00 0.01 0.01 1006.6
20260506031058 0 180 0.0 0.0 0.00 0.01 0.01 1006.6
20260506030300 0 180 0.0 0.0 0.00 0.01 0.01 1006.8
20260506025501 0 45 0.0 0.0 0.00 0.01 0.01 1006.7
20260506024701 0 180 0.0 0.0 0.00 0.01 0.01 1006.6
20260506023901 0 45 0.0 0.0 0.00 0.01 0.01 1006.4
20260506023102 0 45 0.0 0.0 0.00 0.01 0.01 1006.3
20260506022300 0 45 0.0 0.0 0.00 0.01 0.01 1006.2
20260506021500 0 45 0.0 0.0 0.00 0.01 0.01 1006.1
20260506020700 0 45 0.0 0.0 0.00 0.01 0.01 1005.9
20260506015901 0 293 0.0 0.0 0.00 0.01 0.01 1005.8
20260506015101 0 293 0.0 0.0 0.00 0.01 0.01 1005.8
20260506014301 0 293 0.0 0.0 0.00 0.01 0.01 1005.9
20260506013500 0 293 0.0 0.0 0.00 0.01 0.01 1005.7
20260506012700 0 45 0.0 0.0 0.00 0.01 0.01 1005.5